Location: Warszawa
(52.2500°N, 21.0000°E)
Time: 23:04:53
(UTC+02:00)

AO-27 - Pass Details

Date: 21 April 2024
Orbit: 783 x 797 km, 98.8° (Epoch: 26 May)

Event Time Altitude Azimuth Distance (km) Brightness Sun altitude
Exits shadow 21:36:43 - 191° (SSW) 2,957 10.3 -15.0°
Reaches altitude 10° 21:38:21 10° 198° (SSW) 2,363 9.9 -15.2°
Maximum altitude 21:43:07 35° 264° (W) 1,261 9.1 -15.7°
Drops below altitude 10° 21:47:56 10° 330° (NNW) 2,381 11.4 -16.2°
Sets 21:50:28 0° 339° (NNW) 3,315 12.2 -16.5°
